Terminal Aerodrome Forecast
Issued by NWS Cleveland, OH

Home | Current Version | Previous Version | Text Only | Print | Product List | Glossary Off
Versions: 1 2 3 4 5 6 7 8 9 10 11 12 13 14 15 16 17 18

000
FTUS41 KCLE 121100
TAFERI
TAF
KERI 121135Z 1212/1312 02008KT P6SM OVC030
      TEMPO 1212/1214 BKN015
     FM121500 02010KT P6SM BKN030
     FM122000 03010KT P6SM SCT250
     FM130100 03007KT P6SM BKN050 BKN250
     FM130500 05006KT P6SM OVC040=

USA.gov is the U.S. government's official web portal to all federal, state and local government web resources and services.